Location: Blazny
(46.0612°N, 84.4033°W)
Time: 09:54:03
(UTC-04:00)

ARIANE 6 FM1 Upper Stage - Pass Details

Date: 19 September 2024
Orbit: 564 x 594 km, 62.0° (Epoch: 03 October)

Event Time Altitude Azimuth Distance (km) Brightness Sun altitude
Exits shadow 03:16:03 13° 18° (NNE) 1,765 5.8 -37.4°
Drops below altitude 10° 03:17:58 10° 44° (NE) 1,935 6.1 -37.2°
Sets 03:21:30 0° 73° (ENE) 2,838 6.9 -36.8°
